Weather History for KCBE - May, 2013

Change the Weather History Date:

Saturday, May 18, 2013

  Actual Average (KMRB) Record (KMRB)
Temperature  
Mean Temperature 65 °F 62 °F  
Max Temperature 71 °F 73 °F 92 °F (1943)
Min Temperature 59 °F 50 °F 35 °F (1955)
Degree Days  
Heating Degree Days 0 5  
Month to date heating degree days 121  
Since 1 July heating degree days 5178  
Cooling Degree Days 0 2  
Month to date cooling degree days 20  
Year to date cooling degree days 29  
Growing Degree Days 15 (Base 50)    
Moisture  
Dew Point 53 °F    
Average Humidity 65    
Maximum Humidity 88    
Minimum Humidity 46    
Precipitation  
Precipitation 0.00 in 0.13 in 1.05 in (2015)
Month to date precipitation 2.39  
Year to date precipitation 14.03  
Sea Level Pressure  
Sea Level Pressure 30.19 in    
Wind  
Wind Speed 3 mph (NNE)    
Max Wind Speed 8 mph    
Max Gust Speed -    
Visibility 10 miles    
Events      
T = Trace of Precipitation, MM = Missing Value Source: NWS Daily Summary

Daily Weather History Graph

Daily Weather History Graph

Search for Another Location

Airport or City:

Trip Planner

Search our weather history database for the weather conditions in past years. The results will help you decide how hot, cold, wet, or windy it might be!

Date:

Astronomy

May. 18, 2013 Rise Set
Actual Time 5:57 AM EDT 8:25 PM EDT
Civil Twilight 5:27 AM EDT 8:56 PM EDT
Nautical Twilight 4:49 AM EDT 9:34 PM EDT
Astronomical Twilight 4:07 AM EDT 10:17 PM EDT
Moon 1:28 PM EDT (5/18) 1:48 AM EDT (5/18)
Length of Visible Light 15h 29m
Length of Day
14h 27m
First Quarter, 55% of the Moon is Illuminated
May 18
First Quarter
May 25
Full
May 31
Last Quarter
Jun 8
New
Jun 16
First Quarter

Hourly Weather History & Observations

Time (EDT) Temp. Dew Point Humidity Pressure Visibility Wind Dir Wind Speed Gust Speed Precip Events Conditions
12:08 AM 68.0 °F 50.0 °F 52% 30.16 in 10.0 mi Calm Calm - N/A   Clear
12:28 AM 68.0 °F 48.2 °F 49% 30.16 in 10.0 mi NNW 5.8 mph - N/A   Clear
12:48 AM 68.0 °F 46.4 °F 46% 30.16 in 10.0 mi North 4.6 mph - N/A   Clear
1:08 AM 68.0 °F 46.4 °F 46% 30.16 in 10.0 mi North 5.8 mph - N/A   Clear
1:28 AM 66.2 °F 46.4 °F 49% 30.16 in 10.0 mi North 3.5 mph - N/A   Clear
1:48 AM 66.2 °F 44.6 °F 46% 30.16 in 10.0 mi North 3.5 mph - N/A   Clear
2:08 AM 66.2 °F 44.6 °F 46% 30.16 in 10.0 mi Calm Calm - N/A   Clear
2:28 AM 64.4 °F 44.6 °F 49% 30.16 in 10.0 mi NW 3.5 mph - N/A   Clear
2:48 AM 64.4 °F 46.4 °F 52% 30.16 in 10.0 mi Calm Calm - N/A   Clear
3:08 AM 64.4 °F 46.4 °F 52% 30.16 in 10.0 mi NNW 3.5 mph - N/A   Clear
3:29 AM 62.6 °F 46.4 °F 55% 30.16 in 10.0 mi NNW 3.5 mph - N/A   Clear
3:49 AM 62.6 °F 48.2 °F 59% 30.17 in 10.0 mi NNW 4.6 mph - N/A   Clear
4:09 AM 60.8 °F 50.0 °F 68% 30.17 in 10.0 mi NNW 4.6 mph - N/A   Clear
4:29 AM 60.8 °F 50.0 °F 68% 30.18 in 10.0 mi North 4.6 mph - N/A   Clear
4:49 AM 59.0 °F 50.0 °F 72% 30.18 in 10.0 mi North 4.6 mph - N/A   Clear
5:09 AM 59.0 °F 50.0 °F 72% 30.18 in 10.0 mi North 3.5 mph - N/A   Clear
5:29 AM 59.0 °F 48.2 °F 67% 30.18 in 10.0 mi North 3.5 mph - N/A   Mostly Cloudy
5:49 AM 59.0 °F 48.2 °F 67% 30.18 in 10.0 mi NNW 5.8 mph - N/A   Scattered Clouds
6:09 AM 59.0 °F 48.2 °F 67% 30.19 in 10.0 mi NNW 4.6 mph - N/A   Clear
6:29 AM 59.0 °F 46.4 °F 63% 30.20 in 10.0 mi North 4.6 mph - N/A   Mostly Cloudy
6:49 AM 59.0 °F 46.4 °F 63% 30.20 in 10.0 mi NNW 4.6 mph - N/A   Overcast
7:09 AM 60.8 °F 46.4 °F 59% 30.20 in 10.0 mi North 4.6 mph - N/A   Scattered Clouds
7:29 AM 60.8 °F 46.4 °F 59% 30.21 in 10.0 mi North 4.6 mph - N/A   Clear
7:49 AM 62.6 °F 46.4 °F 55% 30.22 in 10.0 mi NNW 4.6 mph - N/A   Clear
8:09 AM 62.6 °F 46.4 °F 55% 30.22 in 10.0 mi NNW 3.5 mph - N/A   Clear
8:29 AM 64.4 °F 46.4 °F 52% 30.22 in 10.0 mi North 3.5 mph - N/A   Scattered Clouds
8:49 AM 64.4 °F 48.2 °F 56% 30.22 in 10.0 mi Calm Calm - N/A   Mostly Cloudy
9:09 AM 64.4 °F 50.0 °F 59% 30.23 in 10.0 mi NNE 3.5 mph - N/A   Overcast
9:29 AM 64.4 °F 50.0 °F 59% 30.23 in 10.0 mi Calm Calm - N/A   Overcast
9:49 AM 64.4 °F 50.0 °F 59% 30.23 in 10.0 mi Calm Calm - N/A   Overcast
10:09 AM 66.2 °F 50.0 °F 56% 30.22 in 10.0 mi Calm Calm - N/A   Overcast
10:29 AM 66.2 °F 50.0 °F 56% 30.24 in 10.0 mi Calm Calm - N/A   Overcast
10:49 AM 66.2 °F 50.0 °F 56% 30.23 in 10.0 mi Calm Calm - N/A   Overcast
11:09 AM 66.2 °F 51.8 °F 60% 30.24 in 10.0 mi Calm Calm - N/A   Overcast
11:30 AM 68.0 °F 51.8 °F 56% 30.22 in 10.0 mi SSW 3.5 mph - N/A   Overcast
11:50 AM 68.0 °F 51.8 °F 56% 30.22 in 10.0 mi Calm Calm - N/A   Overcast
12:10 PM 68.0 °F 53.6 °F 60% 30.22 in 10.0 mi Calm Calm - N/A   Overcast
12:30 PM 69.8 °F 53.6 °F 56% 30.21 in 10.0 mi Calm Calm - N/A   Mostly Cloudy
12:50 PM 71.6 °F 53.6 °F 53% 30.20 in 10.0 mi Calm Calm - N/A   Overcast
1:10 PM 71.6 °F 55.4 °F 57% 30.19 in 10.0 mi East 3.5 mph - N/A   Overcast
1:30 PM 69.8 °F 55.4 °F 60% 30.20 in 10.0 mi ESE 4.6 mph - N/A   Overcast
1:50 PM 69.8 °F 57.2 °F 64% 30.20 in 10.0 mi East 6.9 mph - N/A   Overcast
2:10 PM 69.8 °F 57.2 °F 64% 30.19 in 10.0 mi SE 4.6 mph - N/A   Overcast
2:30 PM 69.8 °F 59.0 °F 68% 30.19 in 10.0 mi East 4.6 mph - N/A   Overcast
2:50 PM 69.8 °F 59.0 °F 68% 30.18 in 10.0 mi East 5.8 mph - N/A   Overcast
3:10 PM 69.8 °F 59.0 °F 68% 30.17 in 10.0 mi SE 4.6 mph - N/A   Overcast
3:30 PM 69.8 °F 59.0 °F 68% 30.17 in 10.0 mi East 8.1 mph - N/A   Overcast
3:50 PM 69.8 °F 59.0 °F 68% 30.16 in 10.0 mi East 5.8 mph - N/A   Overcast
4:10 PM 69.8 °F 59.0 °F 68% 30.16 in 10.0 mi SE 6.9 mph - N/A   Mostly Cloudy
4:30 PM 69.8 °F 59.0 °F 68% 30.17 in 10.0 mi ESE 5.8 mph - N/A   Overcast
4:50 PM 69.8 °F 59.0 °F 68% 30.17 in 10.0 mi ESE 4.6 mph - N/A   Overcast
5:10 PM 69.8 °F 59.0 °F 68% 30.16 in 10.0 mi East 4.6 mph - N/A   Overcast
5:30 PM 68.0 °F 59.0 °F 73% 30.17 in 10.0 mi ENE 3.5 mph - N/A   Overcast
5:50 PM 68.0 °F 59.0 °F 73% 30.17 in 10.0 mi NNE 5.8 mph - N/A   Overcast
6:10 PM 66.2 °F 59.0 °F 78% 30.17 in 10.0 mi NE 3.5 mph - N/A   Overcast
6:30 PM 66.2 °F 59.0 °F 78% 30.18 in 10.0 mi NE 5.8 mph - N/A   Overcast
6:50 PM 64.4 °F 59.0 °F 83% 30.18 in 10.0 mi NE 5.8 mph - N/A   Overcast
7:10 PM 64.4 °F 57.2 °F 77% 30.18 in 10.0 mi NNE 4.6 mph - N/A   Overcast
7:30 PM 64.4 °F 57.2 °F 77% 30.19 in 10.0 mi NNE 8.1 mph - N/A   Overcast
7:50 PM 62.6 °F 57.2 °F 82% 30.19 in 10.0 mi NE 5.8 mph - N/A   Overcast
8:11 PM 62.6 °F 57.2 °F 82% 30.20 in 10.0 mi NE 8.1 mph - N/A   Overcast
8:31 PM 62.6 °F 57.2 °F 82% 30.20 in 10.0 mi NE 8.1 mph - N/A   Overcast
8:51 PM 62.6 °F 57.2 °F 82% 30.20 in 10.0 mi ENE 4.6 mph - N/A   Overcast
9:11 PM 62.6 °F 57.2 °F 82% 30.21 in 10.0 mi NE 3.5 mph - N/A   Overcast
9:31 PM 62.6 °F 57.2 °F 82% 30.22 in 10.0 mi NNE 4.6 mph - N/A   Overcast
9:51 PM 60.8 °F 57.2 °F 88% 30.23 in 10.0 mi NNE 3.5 mph - N/A   Overcast
10:11 PM 60.8 °F 57.2 °F 88% 30.23 in 10.0 mi NE 4.6 mph - N/A   Overcast
10:31 PM 60.8 °F 57.2 °F 88% 30.23 in 10.0 mi NE 5.8 mph - N/A   Overcast
10:51 PM 60.8 °F 55.4 °F 82% 30.23 in 10.0 mi Calm Calm - N/A   Overcast
11:11 PM 60.8 °F 55.4 °F 82% 30.23 in 10.0 mi East 4.6 mph - N/A   Overcast
11:31 PM 60.8 °F 55.4 °F 82% 30.23 in 10.0 mi SE 4.6 mph - N/A   Overcast
11:51 PM 60.8 °F 55.4 °F 82% 30.23 in 10.0 mi ESE 4.6 mph - N/A   Overcast